Location: Arbon
(43.0005°N, 0.7472°E)
Time: 03:17:47
(UTC+00:00)

Nadezhda 4 Rocket - Pass Details

Date: 07 August 2020
Orbit: 949 x 993 km, 82.9° (Epoch: 25 September)

Event Time Altitude Azimuth Distance (km) Brightness Sun altitude
Rises 00:26:16 0° 355° (N) 3,711 8.2 -30.4°
Reaches altitude 10° 00:28:51 10° 358° (N) 2,753 7.2 -30.4°
Maximum altitude 00:35:07 62° 79° (E) 1,094 4.2 -30.2°
Enters shadow 00:35:23 62° 93° (E) 1,099 4.2 -30.2°
